Regional Weather Roundup
Issued by NWS

Home | Current Version | Previous Version | Text Only | Print | Product List | Glossary On
Versions: 1 2 3 4 5 6 7 8 9 10 11 12 13 14 15 16 17 18 19 20 21 22 23 24 25 26 27 28 29 30 31 32 33 34 35 36 37 38 39 40 41 42 43 44 45 46 47 48 49 50
000
ASUS43 KDTX 250010
RWRMI
MICHIGAN HOURLY REGIONAL WEATHER ROUNDUP
NATIONAL WEATHER SERVICE DETROIT/PONTIAC MI
800 PM EDT MON APR 24 2017

NOTE: "FAIR" INDICATES FEW OR NO CLOUDS BELOW 12,000 FEET WITH NO
SIGNIFICANT WEATHER AND/OR OBSTRUCTION TO VISIBILITY.

MIZ047>049-052>055-059>063-066>070-074>076-081>083-250100-
SOUTHEAST LOWER MICHIGAN

CITY           SKY/WX    TMP DP  RH WIND       PRES   REMARKS
ADRIAN         CLEAR     57  39  51 SE12      29.91F
6HR MIN TEMP:  57; 6HR MAX TEMP:  68;

ALMA           CLOUDY    57  46  65 E6        29.91S
6HR MIN TEMP:  57; 6HR MAX TEMP:  70;

ANN ARBOR      CLOUDY    64  35  34 E9        29.91S
BAD AXE        CLOUDY    50  40  67 E9        29.97F
6HR MIN TEMP:  50; 6HR MAX TEMP:  65;

CARO           CLOUDY    62  42  47 E10       29.92F
DETROIT CITY   PTCLDY    62  37  39 SE14      29.93F
6HR MIN TEMP:  62; 6HR MAX TEMP:  69;

DETROIT        CLOUDY    63  33  32 E9        29.93S
6HR MIN TEMP:  63; 6HR MAX TEMP:  71;

FLINT          CLOUDY    64  30  27 SE9       29.91F
6HR MIN TEMP:  63; 6HR MAX TEMP:  70;

GROSSE ILE     CLEAR     59  34  39 E10G21    29.92S
6HR MIN TEMP:  59; 6HR MAX TEMP:  69;

HILLSDALE      CLOUDY    61  32  33 E14       29.89S
HOWELL         CLOUDY    65  20  17 E10       29.91F
6HR MIN TEMP:  65; 6HR MAX TEMP:  70;


CITY           SKY/WX    TMP DP  RH WIND       PRES   REMARKS
JACKSON        CLOUDY    65  33  30 E12       29.89F
6HR MIN TEMP:  65; 6HR MAX TEMP:  70;

LAMBERTVILLE   CLEAR     54  42  65 E10G16    29.92S
6HR MIN TEMP:  54; 6HR MAX TEMP:  62;

LANSING        PTCLDY    66  29  24 SE10      29.89F
6HR MIN TEMP:  66; 6HR MAX TEMP:  72;

LAPEER         FAIR      63  41  43 E6        29.94S
6HR MIN TEMP:  63; 6HR MAX TEMP:  71;

MASON          CLOUDY    65  35  32 E8G16     29.89F
MONROE         CLEAR     57  37  46 E15       29.92S
6HR MIN TEMP:  57; 6HR MAX TEMP:  67;

MT. CLEMENS    CLOUDY    59  42  51 SE7       29.91F
6HR MIN TEMP:  59; 6HR MAX TEMP:  69;

PONTIAC        CLOUDY    65  28  24 SE9       29.91F
6HR MIN TEMP:  65; 6HR MAX TEMP:  70;

PORT HOPE        N/A     44  39  82 E7        29.96F
6HR MIN TEMP:  43; 6HR MAX TEMP:  44;

PORT HURON     CLOUDY    52  39  62 NE6       29.96S
TRI CITIES     CLOUDY    50  45  83 N13       29.94S
6HR MIN TEMP:  50; 6HR MAX TEMP:  63;

MIDLAND        FAIR      52  41  65 NE8       29.93F
6HR MIN TEMP:  52; 6HR MAX TEMP:  65;

TROY           CLOUDY    66  29  25 E6        29.94F
SAGINAW HB     CLOUDY    54  45  71 N9        29.92F
$$
MIZ043>046-050>051-056>058-064>065-071>073-077>080-250100-
SOUTHWEST LOWER MICHIGAN

CITY           SKY/WX    TMP DP  RH WIND       PRES   REMARKS
BATTLE CREEK   CLEAR     67  30  25 E12       29.87F
6HR MIN TEMP:  67; 6HR MAX TEMP:  72;

BENTON HARBOR  PTCLDY    69  27  20 E12       29.82F
6HR MIN TEMP:  69; 6HR MAX TEMP:  75;

BIG RAPIDS     CLOUDY    64  34  32 SE13      29.88S
6HR MIN TEMP:  64; 6HR MAX TEMP:  68;

COLDWATER      CLOUDY    64  31  28 E9        29.86F
6HR MIN TEMP:  64; 6HR MAX TEMP:  70;

FREMONT        FAIR      67  28  23 SE10G17   29.85F
6HR MIN TEMP:  67; 6HR MAX TEMP:  71;

HOLLAND        CLOUDY    66  36  32 E8        29.84F
6HR MIN TEMP:  66; 6HR MAX TEMP:  73;

GRAND RAPIDS   CLOUDY    66  33  29 E9        29.86F
6HR MIN TEMP:  66; 6HR MAX TEMP:  71;

IONIA          FAIR      65  31  28 E12       29.87F
6HR MIN TEMP:  65; 6HR MAX TEMP:  71;

KALAMAZOO      CLEAR     68  29  23 E8        29.86F
6HR MIN TEMP:  68; 6HR MAX TEMP:  74;

LUDINGTON      PTCLDY    59  33  37 CALM      29.83F
6HR MIN TEMP:  59; 6HR MAX TEMP:  65;

MARSHALL       CLOUDY    65  29  26 E9G18     29.87F
6HR MIN TEMP:  65; 6HR MAX TEMP:  72;

MOUNT PLEASANT PTCLDY    59  42  52 E10       29.91F
6HR MIN TEMP:  59; 6HR MAX TEMP:  69;

MUSKEGON       CLOUDY    68  31  25 SE12      29.84F
6HR MIN TEMP:  68; 6HR MAX TEMP:  73;

SOUTH HAVEN    PTCLDY    68  29  23 SE5       29.83S
$$
MIZ016>042-250100-
NORTHERN LOWER MICHIGAN

CITY           SKY/WX    TMP DP  RH WIND       PRES   REMARKS
ALPENA         CLOUDY    44  33  65 E9        30.01F
6HR MIN TEMP:  44; 6HR MAX TEMP:  48;

BEAVER ISLAND  CLOUDY    43  35  71 E14G20    29.90F
6HR MIN TEMP:  43; 6HR MAX TEMP:  48;

BELLAIRE       CLOUDY    67  30  25 SE10G20   29.87S
6HR MIN TEMP:  67; 6HR MAX TEMP:  73;

CADILLAC       CLOUDY    64  33  32 SE10G16   29.89S
CHARLEVOIX     CLOUDY    58  40  50 E10       29.90F
FRANKFORT      CLOUDY    60  30  32 CALM      29.85F
GAYLORD        PTCLDY    57  36  45 E9        29.92S
6HR MIN TEMP:  57; 6HR MAX TEMP:  70;

GRAYLING       CLOUDY    61  37  40 E18       29.93S
6HR MIN TEMP:  61; 6HR MAX TEMP:  70;

HARBOR SPRINGS PTCLDY    53  37  54 E18       29.91S
HOUGHTON LAKE  CLOUDY    59  40  49 E10       29.93F
6HR MIN TEMP:  59; 6HR MAX TEMP:  69;

MANISTEE       CLOUDY    59  28  30 CALM      29.84F
OSCODA         CLOUDY    44  34  67 N5        29.99F
6HR MIN TEMP:  44; 6HR MAX TEMP:  49;

PELLSTON       CLOUDY    51  34  52 E10       29.93F
6HR MIN TEMP:  51; 6HR MAX TEMP:  54;

ROGERS CITY    PTCLDY    45  31  58 SE13G20   30.01F
TRAVERSE CITY  CLOUDY    60  40  47 CALM      29.85F
6HR MIN TEMP:  51; 6HR MAX TEMP:  63;

$$
MIZ007>008-015-250100-
EASTERN UPPER MICHIGAN

CITY           SKY/WX    TMP DP  RH WIND       PRES   REMARKS
KINROSS        CLOUDY    46  31  55 E13       29.98F
6HR MIN TEMP:  45; 6HR MAX TEMP:  51;

MACKINAC ISLAN PTCLDY    39  32  74 E20G29    29.96F WCI  30
6HR MIN TEMP:  39; 6HR MAX TEMP:  42;

NEWBERRY       CLOUDY    45  33  62 SE20G25   29.93S
6HR MIN TEMP:  45; 6HR MAX TEMP:  54;

S. S. MARIE    CLOUDY    48  30  49 SE16G25   29.98F
6HR MIN TEMP:  47; 6HR MAX TEMP:  51;

MUNISING         N/A     51  35  54 SE8G18    29.85F
6HR MIN TEMP:  51; 6HR MAX TEMP:  60;

$$
MIZ004>006-011>014-085-250100-
CENTRAL UPPER MICHIGAN

CITY           SKY/WX    TMP DP  RH WIND       PRES   REMARKS
MANISTIQUE     CLOUDY    44  36  72 E12       29.90S
6HR MIN TEMP:  44; 6HR MAX TEMP:  49;

ESCANABA       CLOUDY    46  37  71 E12       29.87F
6HR MIN TEMP:  45; 6HR MAX TEMP:  50;

MENOMINEE      CLOUDY    46  38  73 E9        29.84
6HR MIN TEMP:  46; 6HR MAX TEMP:  51;

SAWYER-GWINN   CLEAR     48  36  61 S12       29.84S
$$
MIZ001>003-009>011-084-250100-
WESTERN UPPER MICHIGAN

CITY           SKY/WX    TMP DP  RH WIND       PRES   REMARKS
IRON MOUNTAIN  CLOUDY    50  36  58 SE8       29.80F
6HR MIN TEMP:  50; 6HR MAX TEMP:  65;

HOUGHTON       CLOUDY    42  33  70 E16       29.75F
6HR MIN TEMP:  40; 6HR MAX TEMP:  44;

COPPER HARBOR    N/A     41  34  76 SE14G24   29.79F
6HR MIN TEMP:  39; 6HR MAX TEMP:  44;

IRONWOOD       CLOUDY    64  30  27 S9        29.68S
6HR MIN TEMP:  57; 6HR MAX TEMP:  66;

$$

ABBREVIATIONS USED IN REMARKS
   TC - TEMPERATURE IN CELSIUS
  WCI - WIND CHILL INDEX
   HX - HEAT INDEX
  VSB - VISIBILITY




USA.gov is the U.S. government's official web portal to all federal, state and local government web resources and services.